Preview of NWS' New Version of Forecast
This preview is not operational and should not be used for support decisions.
Latest weather observations around

Fairfield / Travis Air Force Base (KSUU)

Using English Units (Switch to International System of Units)
Date/ Time (PDT) Wind (mph) Vis. (mi) Weather Sky Cond. Temp (°F) Rel. Humidity Wind Chill (°F) Heat Index (°F) Pressure Precip. (in)
Air Dwpt 6 hour Altimeter (inHg) Sea level (inHg) 1 hr 3 hr 6 hr
Max Min
Mar 26 12:58 SSE 5 10 Clear CLR 65 47     51%     30.04 30.06      
Mar 26 11:58 SSW 7 10 Clear CLR 62 48     61%     30.05 30.07      
Mar 26 10:58 SW 8 10 Mostly Clear FEW190 58 48     70%     30.06 30.08      
Mar 26 09:58 SW 10 10 Mostly Clear FEW190 53 50     87%     30.05 30.07      
Mar 26 08:58 SW 9 10 Mostly Clear FEW200 50 48     93% 46   30.05 30.07      
Mar 26 07:58 SW 9 10 Mostly Clear FEW200 47 45     91% 43   30.04 30.06      
Mar 26 06:58 SSW 7 10 Cloudy OVC070 48 46     91% 45   30.04 30.06      
Mar 26 05:58 SW 9 10 Cloudy OVC070 49 47     91% 46   30.04 30.06      
Mar 26 04:58 SW 10 10 Cloudy OVC065 50 48     92% 46   30.03 30.05     0
Mar 26 03:58 SW 7 10 Cloudy OVC055 51 48     92%     30.04 30.06      
Mar 26 02:58 SSW 6 10 Cloudy SCT044 OVC055 51 49     92%     30.05 30.07      
Mar 26 01:58 SSW 6 10 Cloudy OVC049 51 48     91%     30.06 30.08 0 0  
Mar 26 01:05 SSW 7 10 Mostly Clear FEW013 52 50     94%     30.06 30.08      
Mar 26 00:58 S 6 7 Light Rain and Fog/Mist FEW012 52 49     91%     30.06 30.08 0    
Mar 26 00:54 SSW 7 5 Light Rain and Fog/Mist FEW012 52 50     94%     30.06 30.08      
Mar 26 00:37 SSW 5 6 Fog/Mist FEW008 52 50     94%     30.07 30.09      
Mar 26 00:25 SSW 5 10 Light Rain FEW008 FEW012 FEW017 SCT023 54 50     88%     30.07 30.09      
Mar 26 00:10 SW 6 10 Light Rain FEW007 FEW012 OVC022 54 52     94%     30.07 30.09      
Mar 26 00:08 SSW 5 10 Cloudy FEW012 OVC022 54 52     94%     30.07 30.09      
Mar 25 23:58 Calm 10 Cloudy OVC023 53 51     92%     30.07 30.09      
Mar 25 23:38 Calm 10 Cloudy BKN024 OVC032 54 52     94%     30.07 30.09      
Mar 25 22:58 W 7 10 Cloudy BKN065 OVC090 54 52     93%     30.05 30.07 0   0
Mar 25 22:23 SW 8 10 Cloudy FEW065 BKN090 OVC100 54 52     94%     30.06 30.08      
Mar 25 22:15 WSW 7 10 Light Rain FEW013 SCT065 BKN085 OVC110 54 52     94%     30.05 30.07      
Mar 25 22:14 WSW 8 10 Cloudy FEW013 SCT065 BKN085 OVC110 54 52     94%     30.05 30.07      
Mar 25 21:58 WSW 7 10 Mostly Cloudy SCT070 SCT090 BKN110 54 52     93%     30.06 30.08 0    
Mar 25 20:58 W 9 10 Mostly Cloudy FEW046 BKN100 54 52     93%     30.05 30.07 0    
Mar 25 20:45 W 10 10 Partly Cloudy SCT050 54 52     94%     30.05 30.07      
Mar 25 20:23 WSW 10 10 Rain SCT027 54 52     94%     30.05 30.07      
Mar 25 20:18 SW 10 10 Light Rain BKN027 54 52     94%     30.05 30.07      
Mar 25 19:58 SW 11 8 Heavy Rain OVC065 54 52     93%     30.05 30.07 0 0  
Mar 25 18:58 WSW 10 6 Rain and Fog/Mist FEW006 FEW013 56 54     93%     30.05 30.07 0    
Mar 25 18:38 WSW 9 5 Rain and Fog/Mist FEW007 FEW046 OVC060 55 54     94%     30.05 30.07      
Mar 25 18:22 SW 11 10 Light Rain OVC050 55 54     94%     30.05 30.07      
Mar 25 18:20 SW 13 10 Cloudy OVC050 55 54     94%     30.05 30.07      
Mar 25 17:58 SW 9 9 Rain FEW038 OVC048 56 54     93%     30.04 30.06 0    
Mar 25 17:40 SW 13 9 Light Rain OVC042 55 54     94%     30.05 30.07      
Mar 25 17:34 SW 13 4 Fog/Mist OVC039 55 54     94%     30.05 30.07      
Mar 25 17:33 SW 14 3 Light Rain and Fog/Mist OVC039 55 54     94%     30.05 30.07      
Mar 25 17:28 SW 15 2.25 Heavy Rain and Fog/Mist OVC037 55 54     94%     30.05 30.07      
Mar 25 16:58 SW 16 4 Rain and Fog/Mist OVC039 56 53     92%     30.05 30.07 0   0
Mar 25 16:56 SW 16 3 Rain and Fog/Mist OVC039 55 54     94%     30.05 30.07      
Mar 25 16:42 WSW 15 3 Fog/Mist OVC041 55 54     94%     30.05 30.07      
Mar 25 16:25 SW 15 8 Rain FEW002 FEW033 OVC043 55 54     94%     30.06 30.08      
Mar 25 15:58 SW 13 5 Rain and Fog/Mist OVC039 56 53     87%     30.06 30.08 0    
Mar 25 14:59 W 14 10 Light Rain OVC039 59 52     77%     30.06 30.08      
Mar 25 14:58 W 13 10 Cloudy OVC039 60 51     74%     30.06 30.08 0    
Mar 25 14:47 WSW 14 10 Cloudy OVC043 61 52     72%     30.06 30.08      
Mar 25 14:31 SW 17 10 Light Rain OVC045 63 50     63%     30.06 30.08      
Mar 25 13:58 SSW 14 10 Mostly Cloudy FEW028 SCT045 BKN060 BKN095 63 49     60%     30.06 30.08 0 0  
Mar 25 13:43 S 9 10 Mostly Cloudy FEW028 FEW039 SCT047 SCT060 BKN080 BKN095 63 50     63%     30.06 30.08      
Mar 25 13:30 S 9 10 Light Rain FEW036 SCT047 SCT060 BKN075 OVC090 63 48     59%     30.06 30.08      
Mar 25 13:17 S 10 10 Mostly Cloudy FEW036 FEW055 BKN085 63 48     59%     30.06 30.08      
Mar 25 13:06 S 9 10 Light Rain FEW037 SCT055 SCT095 63 46     55%     30.06 30.08      
Mar 25 12:58 SSE 11 10 Partly Cloudy FEW095 SCT200 62 45     53%     30.06 30.08      
Mar 25 10:58 SSE 10 10 Mostly Cloudy FEW050 BKN130 58 45     62%     30.08 30.1      
Mar 25 09:58 SSW 8 10 Mostly Cloudy SCT047 SCT055 BKN095 54 47     77%     30.08 30.1      
Mar 25 08:58 SW 7 10 Cloudy OVC085 50 48     93%     30.07 30.09      
Mar 25 07:58 SE 6 10 Partly Cloudy SCT090 SCT130 45 42     91% 42   30.05 30.07      
Mar 25 06:58 SE 6 10 Clear CLR 44 41     89% 41   30.03 30.05      
Mar 25 05:58 Calm 10 Clear CLR 43 39     86%     30.03 30.05      
Mar 25 04:58 Calm 10 Clear   43 39     86%     30.04 30.06      
Mar 25 03:58 Calm 10 Clear CLR 46 42     86%     30.06 30.08      
Mar 25 02:58 NNE 3 10 Mostly Cloudy BKN140 48 45     87% 47   30.08 30.1      
Mar 25 01:58 W 6 10 Mostly Cloudy BKN130 47 44     87% 45   30.11 30.13      
Mar 25 00:58 Calm 10 Partly Cloudy SCT140 46 41     84%     30.12 30.14      
Mar 24 23:58 Calm 10 Clear CLR 47 43     84%     30.13 30.15      
Mar 24 22:58 Calm 10 Mostly Clear FEW170 50 44     81%     30.14 30.16      
Mar 24 21:58 NNE 3 10 Partly Cloudy SCT170 50 44     81%     30.13 30.15      
Mar 24 20:58 NW 3 10 Partly Cloudy SCT180 50 42     74%     30.14 30.16      
Mar 24 19:58 Calm 10 Clear CLR 56 44     66%     30.12 30.14      
Mar 24 18:58 Calm 10 Clear CLR 60 44     55%     30.14 30.16      
Mar 24 17:58 Calm 10 Clear CLR 65 43     45%     30.15 30.17      
Mar 24 16:58 ENE 7 10 Mostly Clear FEW200 64 46     53%     30.16 30.18      
Mar 24 15:58 ENE 6 10 Mostly Clear FEW200 64 47     53%     30.17 30.19      
Mar 24 13:58 ENE 6 10 Mostly Clear FEW200 64 47     54%     30.22 30.24      
Mar 24 12:58 ENE 7 10 Clear CLR 62 47     58%     30.24 30.26      
Mar 24 11:58 NE 8 10 Mostly Clear FEW190 FEW210 60 47     64%     30.25 30.27      
Mar 24 10:58 NNE 8 10 Clear CLR 57 47     69%     30.25 30.27      
Mar 24 09:58 NNE 10 10 Clear CLR 54 47     79%     30.25 30.27      
Mar 24 08:58 NNE 11 10 Clear CLR 49 46     90% 45   30.24 30.26      
Mar 24 07:58 N 8 10 Clear CLR 45 42     91% 40   30.23 30.25      
Mar 24 06:58 N 7 10 Clear CLR 41 38     89% 37   30.21 30.23      
Mar 24 05:58 N 7 10 Clear CLR 43 40     90% 38   30.2 30.22      
Mar 24 04:58 N 6 10 Clear CLR 41 38     89% 37   30.2 30.22      
Mar 24 03:58 Calm 10 Clear CLR 40 37     89%     30.21 30.23      
Mar 24 02:58 Calm 10 Clear CLR 41 38     88%     30.22 30.24      
Mar 24 01:58 WSW 5 10 Clear CLR 43 40     89% 40   30.23 30.25      
Mar 24 00:58 Calm 10 Clear CLR 44 41     88%     30.22 30.24      
Mar 23 23:58 WSW 6 10 Clear CLR 45 41     86% 42   30.23 30.25      
Mar 23 22:58 WSW 8 10 Clear CLR 46 42     85% 42   30.22 30.24      
Notice The following observation data may not be complete
Mar 23 21:58   10 Clear CLR          %              
Mar 23 20:58 SW 8 10 Clear CLR 49 43     79% 46   30.2 30.22      
Mar 23 19:58 WSW 13 10 Clear CLR 53 43     69%     30.18 30.2      
Mar 23 18:58 WSW 17 10 Clear CLR 57 44     62%     30.17 30.19      
Mar 23 17:58 WSW 18 10 Clear CLR 61 45     56%     30.15 30.17      
Mar 23 16:58 WSW 20 10 Partly Cloudy and Windy SCT110 63 45     51%     30.15 30.17      
Mar 23 15:58 SW 15 10 Clear CLR 65 45     49%     30.16 30.18      
Mar 23 13:58 SW 16 10 Mostly Clear FEW045 64 44     49%     30.17 30.19      
Mar 23 12:58 SW 13 10 Mostly Clear FEW037 64 48     56%     30.17 30.19      
Notice The following observation data may not be complete
May 15 08:58   10 Clear CLR          %              
May 15 02:58   10 Mostly Cloudy SCT013 BKN100 53 48     82%     29.93 29.95      
May 14 13:58 WSW 23 10 Clear and Windy CLR 67 52     58%     29.91 29.93      
May 14 10:58   10 Clear CLR 62 50     65%     29.95 29.97      
May 13 07:38   10 Partly Cloudy SCT016 55 48     77%     29.94 29.96      
May 12 12:58   9 Clear CLR 81 42     25%   80 29.8 29.82      
May 12 11:58 N 13 10 Clear CLR 79 41     26%   78          
May 12 07:58 N 21 10 Clear and Windy CLR 70 40     34%     29.81 29.83      
May 12 03:58 N 18 10 Clear CLR 65 40     40%     29.79 29.81      
May 12 02:58 N 16 10 Clear CLR 65 40     39%     29.79 29.81      
Jun 11 20:58 WSW 8 10 Clear   53 48     81%     29.93 29.95      
Jun 11 17:58 WNW 6 5 Rain OVC060 53 48     81%     29.95   0    
Jun 11 14:58 WSW 16 10 Clear CLR 71 41     34%   69 29.87 29.89      
Jun 10 19:58   10 Clear   63 45     52%     29.86 29.88      
Jun 10 17:58 WSW 21 8 Clear and Windy CLR 70 46     43%     29.85 29.87      
Jun 10 15:58 WSW 22 10 Clear and Windy CLR 73 45     37%   72 29.86 29.88      
Jun 10 13:32 W 16 10 Mostly Clear FEW055 73 45     36%   72 29.89 29.91      
Jun 10 12:03   10 Clear CLR 73 39     29%   72 29.91 29.93      
Jun 09 22:58 SW 11 10 Clear CLR 55 48     77%     29.92 29.94      
Notice The following observation data may not be complete
Jun 09 16:58   10 Clear CLR          %              
Jun 09 15:58 SW 16 10 Clear CLR 72 47     41%   71 29.89 29.91      
Jun 08 11:58 ESE 6 10 Cloudy BKN028 OVC033 65 52     62%     30.02 30.04 0    
Jun 08 11:17 Calm 10 Cloudy OVC028 61 52     72%     30.02 30.04      
Notice The following observation data may not be complete
Jun 08 11:06   9 Light Rain OVC028          %              
Jun 08 10:58 Calm 7 Light Drizzle OVC028 60 51     73%     30.01 30.03 0   0
Jun 07 12:58   10 Mostly Cloudy FEW080 SCT150 BKN180 BKN210 71 52     52%   70 29.84 29.86      
Notice The following observation data may not be complete
Jun 07 05:58   10 Clear CLR          %              
Jun 06 11:58 WSW 16 10 Clear CLR 75 52     44%   75 29.86 29.88      
Jun 06 10:58 SW 17 10 Clear CLR 71 52     50%   70 29.87 29.89      
Jun 06 01:58   10 Clear CLR 58 50     76%     29.82 29.84      
Jun 05 12:58 SSW 6 10 Clear CLR 84 51     32%   82 29.85 29.87